Погода в Рыбинске

Россия / Ярославская область     58°02′54″N   38°51′30″E
темп.,
°C
ветер,
м/с
пор.,
м/с
влажн.,
%
обл.,
%
осадки,
мм/ч
давл.,
гПа
погр.,
м
8 мая, сб
сб800:00+5ю3883100 0.0 1012153
03:00+5ююв397925 0.0 1011188
06:00+7ююв41374100 0.0 1010349
09:00+11ююв51161100 0.0 10101369
12:00+9ююв61380100 0.5 10091370
15:00+9юв61490100 3.8 10071506
18:00+8юв61493100 8.0 10051471
21:00+8юв51394100 15.0 10031199
9 мая, вс
вс900:00+7в2498100 3.5 1001170
03:00+6сз4898100 3.9 1001334
06:00+4сз71496100 3.6 1003712
09:00+2сз81698100 11.6 1007697
12:00+5сз71186100 2.4 10101039
15:00+9ссз6126564 2.5 10131527
18:00+9сз386170 0.0 1016860
21:00+4зсз39780 0.0 1019161
10 мая, пн
пн1000:00+3сз311760 0.0 1022260
03:00+1сз23800 0.0 102549
06:00+3з12710 0.0 102777
09:00+9юз345138 0.0 1028531
12:00+13юз45445 0.0 10281551
15:00+14юз464455 0.0 10281905
18:00+11ююз2565100 0.0 1028132
21:00+10ююз237279 0.0 102960
11 мая, вт
вт1100:00+7ююз23805 0.0 103046
03:00+6ююз23846 0.0 103148
06:00+8ю258149 0.0 1031128
09:00+13ю346275 0.0 1032475
12:00+17ю34515 0.0 10311103
15:00+19ююв22485 0.0 10301329
18:00+18юв23595 0.0 1030558
21:00+12юв358314 0.0 103085
12 мая, ср
ср1200:00+10юв24835 0.0 103160
03:00+8юв22844 0.0 103033
06:00+9юв25780 0.0 1031143
09:00+15вюв35550 0.0 1030536
12:00+19юв45440 0.0 10291055
15:00+20юв45433 0.0 10271170
18:00+19вюв36585 0.0 1027690
21:00+13вюв37818 0.0 1027128